STARLINK-37096

Last updated on Sun Apr 12 2026 00:02:07 GMT+0000 (Coordinated Universal Time)

1 68239U 26054H 26101.52256965 .00137380 00000+0 88446-3 0 9999 2 68239 53.1590 148.3582 0001457 56.4712 303.6447 15.75275648 3961
UTC large
Height (km)
Speed (km/s)
/
Latitude / Longitude
Inclination (degrees)
Orbital Period (minutes)
Azimuth
Elevation
Range (km)
Doppler Factor

Next 0 passes for location: London (51.5072 / 0.1276)

Sorry there are no passes over London.
STARLINK-37096